C/2011 L4 ( PanSTARRS )

Japanese version
Home page
Updated on June 17, 2013

---------------------------------------------------------------------

* Profile

Discovery Date June 6, 2011
Magnitude 19.4 mag
Discoverer Pan-STARRS 1 telescope (Haleakala)

* Pictures

* Orbital Elements

Epoch 2013 Mar. 9.0 TT = JDT 2456360.5
T 2013 Mar. 10.16990 TT                                 MPC
q   0.3015447            (2000.0)            P               Q
z  -0.0001062      Peri.  333.65166     +0.41005832     +0.10048725
 +/-0.0000003      Node    65.66586     +0.90783491     +0.05058049
e   1.0000320      Incl.   84.20828     -0.08768098     +0.99365181
From 2361 observations 2011 May 21-2013 May 23, mean residual 0".5.

* Finding Charts

* Magnitudes Graph

        m1 = -1.8 + 5 log d + 18.0 log r  [    ,-365]  (             - 2012 Mar. 10)
        m1 =  4.0 + 5 log d + 10.0 log r  [-365,-120]  (2012 Mar. 10 - 2012 Nov. 10)
        m1 =  5.0 + 5 log d +  7.5 log r  [-120, 120]  (2012 Nov. 10 - 2013 July  8)
        m1 =  4.0 + 5 log d + 10.0 log r  [ 120,    ]  (2013 July  8 -             )

        * Gray curve is:  m1 = 4.0 + 5 log d + 10.0 log r

---------------------------------------------------------------------

The orbital elements are published on M.P.E.C. 2013-K38.
The charts are made with StellaNavigator Ver.8 (AstroArts).
The magnitudes graphs are made with Comet for Windows.

---------------------------------------------------------------------

Copyright(C) Seiichi Yoshida (comet@aerith.net). All rights reserved.